^^
Datos históricos de la estación: Murcia-Puente Tocinos
Diario Informe para Mayo 6, 2019 Unidades:  Métrico    Inglés   Ambas
Diario Semanal Mensual Anual Configurable
  Máximo: Mínimo: Media:
Temperatura: 24.3 °C 13.6 °C 18.2 °C
Punto de rocio: 15.3 °C 11.1 °C 13.2 °C
Humedad: 86% 55% 74%
Velocidad viento: 18.0km/h 0.0km/h 7.3km/h
Racha viento: 32.2km/h - -
Viento- - East
Presión: 1017.6 hPa 1014.9 hPa -
Precipitación: 0.0 mm    
Historical Graphs
 
 
Tabla de datos para Mayo 6, 2019
Hora Temperatura Punto de rocio Presión Viento Velocidad viento Racha viento Humedad Intensidad lluvia(por hora) Nubes
00:00 15.7 °C 11.3 °C 1015.1 hPa NNE 8.0 km/h 11.3 km/h 75% 0.0 mm CLR
00:05 15.6 °C 11.4 °C 1015.0 hPa NNE 6.9 km/h 10.0 km/h 76% 0.0 mm CLR
00:10 15.6 °C 11.4 °C 1015.0 hPa NE 7.6 km/h 11.1 km/h 76% 0.0 mm CLR
00:15 15.4 °C 11.2 °C 1015.0 hPa NNW 7.6 km/h 10.0 km/h 76% 0.0 mm CLR
00:20 15.4 °C 11.4 °C 1015.2 hPa North 6.9 km/h 7.6 km/h 77% 0.0 mm CLR
00:25 15.3 °C 11.3 °C 1015.2 hPa NNE 6.9 km/h 9.5 km/h 77% 0.0 mm CLR
00:30 15.3 °C 11.3 °C 1015.2 hPa NNE 5.8 km/h 9.3 km/h 77% 0.0 mm CLR
00:35 15.3 °C 11.3 °C 1015.2 hPa NNE 5.8 km/h 6.9 km/h 77% 0.0 mm CLR
00:40 15.2 °C 11.2 °C 1015.2 hPa NNE 4.7 km/h 9.3 km/h 77% 0.0 mm CLR
00:45 15.2 °C 11.2 °C 1015.2 hPa NNE 4.7 km/h 7.4 km/h 77% 0.0 mm CLR
00:50 15.2 °C 11.2 °C 1015.2 hPa NNE 5.0 km/h 7.4 km/h 77% 0.0 mm CLR
00:55 15.2 °C 11.4 °C 1015.2 hPa NE 5.0 km/h 7.4 km/h 78% 0.0 mm CLR
01:00 15.2 °C 11.2 °C 1015.2 hPa NNE 3.2 km/h 9.7 km/h 77% 0.0 mm CLR
01:04 15.2 °C 11.4 °C 1015.3 hPa NNE 4.7 km/h 7.4 km/h 78% 0.0 mm CLR
01:09 15.1 °C 11.3 °C 1015.3 hPa NE 5.8 km/h 7.4 km/h 78% 0.0 mm CLR
01:14 15.1 °C 11.3 °C 1015.3 hPa North 5.8 km/h 7.4 km/h 78% 0.0 mm CLR
01:19 15.0 °C 11.2 °C 1015.4 hPa NE 5.8 km/h 7.4 km/h 78% 0.0 mm CLR
01:24 14.9 °C 11.3 °C 1015.4 hPa NE 5.8 km/h 9.3 km/h 79% 0.0 mm CLR
01:29 14.9 °C 11.3 °C 1015.4 hPa NNE 5.8 km/h 9.5 km/h 79% 0.0 mm CLR
01:34 14.8 °C 11.2 °C 1015.3 hPa North 5.8 km/h 9.5 km/h 79% 0.0 mm CLR
01:39 14.8 °C 11.2 °C 1015.3 hPa NNE 6.9 km/h 7.4 km/h 79% 0.0 mm CLR
01:44 14.8 °C 11.4 °C 1015.3 hPa North 6.9 km/h 7.4 km/h 80% 0.0 mm CLR
01:49 14.8 °C 11.2 °C 1015.3 hPa NNW 3.2 km/h 7.4 km/h 79% 0.0 mm CLR
01:54 14.8 °C 11.2 °C 1015.3 hPa NNW 3.2 km/h 7.4 km/h 79% 0.0 mm CLR
01:59 14.8 °C 11.2 °C 1015.3 hPa NNW 3.9 km/h 8.7 km/h 79% 0.0 mm CLR
02:04 14.8 °C 11.4 °C 1015.2 hPa NNE 3.9 km/h 7.4 km/h 80% 0.0 mm CLR
02:09 14.7 °C 11.3 °C 1015.2 hPa NNE 3.9 km/h 5.0 km/h 80% 0.0 mm CLR
02:14 14.7 °C 11.3 °C 1015.2 hPa NNE 3.9 km/h 3.7 km/h 80% 0.0 mm CLR
02:19 14.7 °C 11.3 °C 1015.2 hPa NNE 2.3 km/h 5.0 km/h 80% 0.0 mm CLR
02:24 14.7 °C 11.3 °C 1015.2 hPa NNE 2.3 km/h 7.4 km/h 80% 0.0 mm CLR
02:29 14.6 °C 11.2 °C 1015.2 hPa NE 3.9 km/h 7.4 km/h 80% 0.0 mm CLR
02:34 14.6 °C 11.2 °C 1015.1 hPa NNE 3.9 km/h 7.4 km/h 80% 0.0 mm CLR
02:39 14.5 °C 11.3 °C 1015.1 hPa NNE 3.9 km/h 3.7 km/h 81% 0.0 mm CLR
02:44 14.5 °C 11.3 °C 1015.1 hPa NNE 3.9 km/h 5.6 km/h 81% 0.0 mm CLR
02:49 14.5 °C 11.3 °C 1015.3 hPa NNE 2.3 km/h 5.6 km/h 81% 0.0 mm CLR
02:54 14.4 °C 11.2 °C 1015.3 hPa NNE 2.3 km/h 4.7 km/h 81% 0.0 mm CLR
02:59 14.4 °C 11.2 °C 1015.3 hPa ENE 2.9 km/h 3.7 km/h 81% 0.0 mm CLR
03:04 14.4 °C 11.2 °C 1015.1 hPa NE 2.9 km/h 7.4 km/h 81% 0.0 mm CLR
03:09 14.4 °C 11.2 °C 1015.1 hPa NE 3.2 km/h 7.4 km/h 81% 0.0 mm CLR
03:14 14.4 °C 11.4 °C 1015.1 hPa ENE 3.2 km/h 3.9 km/h 82% 0.0 mm CLR
03:19 14.4 °C 11.4 °C 1015.1 hPa East 3.9 km/h 3.7 km/h 82% 0.0 mm CLR
03:24 14.4 °C 11.4 °C 1015.1 hPa ENE 3.9 km/h 5.6 km/h 82% 0.0 mm CLR
03:29 14.4 °C 11.4 °C 1015.1 hPa North 2.3 km/h 5.6 km/h 82% 0.0 mm CLR
03:34 14.4 °C 11.4 °C 1015.1 hPa NNW 2.3 km/h 7.4 km/h 82% 0.0 mm CLR
03:39 14.4 °C 11.4 °C 1015.1 hPa WNW 2.9 km/h 7.4 km/h 82% 0.0 mm CLR
03:44 14.3 °C 11.3 °C 1015.1 hPa NNW 2.9 km/h 5.6 km/h 82% 0.0 mm CLR
03:49 14.3 °C 11.3 °C 1015.2 hPa NNW 3.2 km/h   82% 0.0 mm CLR
03:54 14.3 °C 11.3 °C 1015.2 hPa NNW 3.2 km/h   82% 0.0 mm CLR
03:59 14.3 °C 11.3 °C 1015.2 hPa Calm   7.4 km/h 82% 0.0 mm CLR
04:04 14.2 °C 11.3 °C 1015.2 hPa Calm   1.9 km/h 83% 0.0 mm CLR
04:09 14.3 °C 11.4 °C 1015.2 hPa NNE 2.9 km/h   83% 0.0 mm CLR
04:14 14.3 °C 11.4 °C 1015.2 hPa NNE 2.9 km/h   83% 0.0 mm CLR
04:19 14.3 °C 11.4 °C 1015.2 hPa Calm   5.8 km/h 83% 0.0 mm CLR
04:24 14.2 °C 11.3 °C 1015.2 hPa Calm   3.7 km/h 83% 0.0 mm CLR
04:29 14.2 °C 11.3 °C 1015.2 hPa NNE 3.2 km/h 5.6 km/h 83% 0.0 mm CLR
04:34 14.1 °C 11.3 °C 1015.2 hPa ENE 3.2 km/h 5.6 km/h 83% 0.0 mm CLR
04:39 14.1 °C 11.3 °C 1015.2 hPa NE 3.9 km/h 7.4 km/h 83% 0.0 mm CLR
04:44 14.0 °C 11.2 °C 1015.2 hPa NE 3.9 km/h 7.4 km/h 83% 0.0 mm CLR
04:49 13.9 °C 11.2 °C 1015.4 hPa NE 3.2 km/h   84% 0.0 mm CLR
04:54 13.9 °C 11.2 °C 1015.4 hPa NE 3.2 km/h 3.7 km/h 84% 0.0 mm CLR
04:59 13.9 °C 11.2 °C 1015.4 hPa Calm     84% 0.0 mm CLR
05:04 13.9 °C 11.2 °C 1015.5 hPa Calm     84% 0.0 mm CLR
05:09 13.9 °C 11.2 °C 1015.5 hPa Calm   3.7 km/h 84% 0.0 mm CLR
05:14 13.9 °C 11.2 °C 1015.5 hPa Calm     84% 0.0 mm CLR
05:19 13.9 °C 11.2 °C 1015.5 hPa NE 2.3 km/h 5.6 km/h 84% 0.0 mm CLR
05:24 13.9 °C 11.2 °C 1015.5 hPa East 2.3 km/h 2.9 km/h 84% 0.0 mm CLR
05:29 13.8 °C 11.2 °C 1015.5 hPa East 2.3 km/h 2.9 km/h 84% 0.0 mm CLR
05:34 13.8 °C 11.2 °C 1015.6 hPa East 2.3 km/h   84% 0.0 mm CLR
05:39 13.8 °C 11.3 °C 1015.6 hPa Calm     85% 0.0 mm CLR
05:44 13.8 °C 11.3 °C 1015.6 hPa Calm     85% 0.0 mm CLR
05:49 13.8 °C 11.3 °C 1015.7 hPa Calm     85% 0.0 mm CLR
05:54 13.8 °C 11.3 °C 1015.7 hPa Calm   3.9 km/h 85% 0.0 mm CLR
05:59 13.8 °C 11.2 °C 1015.7 hPa Calm   5.6 km/h 84% 0.0 mm CLR
06:04 13.8 °C 11.2 °C 1015.7 hPa Calm   7.4 km/h 84% 0.0 mm CLR
06:09 13.7 °C 11.1 °C 1015.7 hPa East 2.9 km/h 5.6 km/h 84% 0.0 mm CLR
06:14 13.7 °C 11.2 °C 1015.7 hPa East 2.9 km/h 3.7 km/h 85% 0.0 mm CLR
06:19 13.6 °C 11.1 °C 1015.8 hPa East 2.9 km/h 5.6 km/h 85% 0.0 mm CLR
06:24 13.6 °C 11.3 °C 1015.8 hPa East 2.9 km/h 5.6 km/h 86% 0.0 mm CLR
06:29 13.6 °C 11.3 °C 1015.8 hPa East 2.9 km/h 4.7 km/h 86% 0.0 mm CLR
06:34 13.6 °C 11.1 °C 1015.9 hPa ESE 2.9 km/h 3.7 km/h 85% 0.0 mm CLR
06:39 13.6 °C 11.3 °C 1015.9 hPa ESE 2.9 km/h 5.6 km/h 86% 0.0 mm CLR
06:44 13.6 °C 11.3 °C 1015.9 hPa ESE 2.9 km/h 3.7 km/h 86% 0.0 mm CLR
06:49 13.6 °C 11.1 °C 1016.0 hPa ESE 2.9 km/h 5.6 km/h 85% 0.0 mm CLR
06:54 13.7 °C 11.2 °C 1016.0 hPa ESE 2.9 km/h 5.6 km/h 85% 0.0 mm CLR
06:59 13.7 °C 11.2 °C 1016.0 hPa ESE 2.9 km/h 3.9 km/h 85% 0.0 mm CLR
07:04 13.7 °C 11.4 °C 1016.3 hPa ESE 2.9 km/h   86% 0.0 mm CLR
07:09 13.8 °C 11.3 °C 1016.3 hPa SE 2.3 km/h 7.4 km/h 85% 0.0 mm CLR
07:14 13.8 °C 11.3 °C 1016.3 hPa SE 2.3 km/h 3.7 km/h 85% 0.0 mm CLR
07:19 13.8 °C 11.3 °C 1016.4 hPa SE 2.9 km/h   85% 0.0 mm CLR
07:24 13.9 °C 11.4 °C 1016.4 hPa SE 2.9 km/h   85% 0.0 mm CLR
07:29 13.9 °C 11.4 °C 1016.4 hPa Calm     85% 0.0 mm CLR
07:34 14.1 °C 11.6 °C 1016.5 hPa Calm     85% 0.0 mm CLR
07:39 14.1 °C 11.4 °C 1016.5 hPa Calm     84% 0.0 mm CLR
07:44 14.1 °C 11.4 °C 1016.5 hPa Calm     84% 0.0 mm CLR
07:49 14.2 °C 11.6 °C 1016.8 hPa Calm     84% 0.0 mm CLR
07:54 14.2 °C 11.6 °C 1016.8 hPa Calm     84% 0.0 mm CLR
07:59 14.3 °C 11.6 °C 1016.8 hPa Calm     84% 0.0 mm CLR
08:04 14.4 °C 11.6 °C 1016.9 hPa Calm     83% 0.0 mm CLR
08:09 14.4 °C 11.7 °C 1016.9 hPa Calm     84% 0.0 mm CLR
08:14 14.5 °C 11.8 °C 1016.9 hPa Calm     84% 0.0 mm CLR
08:19 14.6 °C 11.7 °C 1017.0 hPa Calm     83% 0.0 mm CLR
08:24 14.6 °C 11.7 °C 1017.0 hPa Calm   5.6 km/h 83% 0.0 mm CLR
08:29 14.7 °C 11.8 °C 1017.0 hPa NNE 2.3 km/h   83% 0.0 mm CLR
08:34 14.7 °C 11.8 °C 1017.1 hPa NNE 2.3 km/h 3.7 km/h 83% 0.0 mm CLR
08:39 14.8 °C 11.9 °C 1017.1 hPa Calm     83% 0.0 mm CLR
08:44 14.9 °C 12.1 °C 1017.1 hPa Calm     83% 0.0 mm CLR
08:49 15.0 °C 11.9 °C 1017.3 hPa Calm   7.4 km/h 82% 0.0 mm CLR
08:54 15.1 °C 12.1 °C 1017.3 hPa Calm   7.4 km/h 82% 0.0 mm CLR
08:59 15.2 °C 12.2 °C 1017.3 hPa NW 2.9 km/h   82% 0.0 mm CLR
09:04 15.3 °C 12.1 °C 1017.2 hPa NW 2.9 km/h   81% 0.0 mm CLR
09:09 15.3 °C 12.1 °C 1017.2 hPa Calm     81% 0.0 mm CLR
09:14 15.4 °C 12.2 °C 1017.2 hPa Calm   3.7 km/h 81% 0.0 mm CLR
09:19 15.6 °C 12.3 °C 1017.5 hPa Calm   4.7 km/h 81% 0.0 mm CLR
09:24 15.6 °C 12.2 °C 1017.5 hPa Calm     80% 0.0 mm CLR
09:29 15.7 °C 12.3 °C 1017.5 hPa Calm   5.0 km/h 80% 0.0 mm CLR
09:35 15.8 °C 12.3 °C 1017.4 hPa Calm     80% 0.0 mm CLR
09:39 15.9 °C 12.4 °C 1017.4 hPa Calm     80% 0.0 mm CLR
09:44 16.2 °C 12.7 °C 1017.4 hPa Calm     80% 0.0 mm CLR
09:49 16.2 °C 12.6 °C 1017.4 hPa Calm     79% 0.0 mm CLR
09:54 16.3 °C 12.7 °C 1017.4 hPa Calm   6.4 km/h 79% 0.0 mm CLR
09:59 16.4 °C 12.7 °C 1017.4 hPa NW 2.9 km/h 7.4 km/h 79% 0.0 mm CLR
10:04 16.4 °C 12.7 °C 1017.4 hPa WNW 2.9 km/h 7.4 km/h 79% 0.0 mm CLR
10:09 16.3 °C 12.7 °C 1017.4 hPa North 3.9 km/h 7.4 km/h 79% 0.0 mm CLR
10:14 16.4 °C 12.7 °C 1017.4 hPa East 3.9 km/h 5.6 km/h 79% 0.0 mm CLR
10:19 16.5 °C 12.8 °C 1017.4 hPa NNW 2.9 km/h 7.4 km/h 79% 0.0 mm CLR
10:24 16.6 °C 12.9 °C 1017.4 hPa ENE 2.9 km/h 7.4 km/h 79% 0.0 mm CLR
10:29 16.7 °C 13.1 °C 1017.4 hPa North 3.9 km/h   79% 0.0 mm CLR
10:34 16.8 °C 12.9 °C 1017.4 hPa ENE 3.9 km/h 7.4 km/h 78% 0.0 mm CLR
10:39 16.9 °C 13.1 °C 1017.4 hPa NNE 4.7 km/h 9.3 km/h 78% 0.0 mm CLR
10:44 17.2 °C 12.9 °C 1017.4 hPa East 4.7 km/h 13.0 km/h 76% 0.0 mm CLR
10:49 17.3 °C 13.0 °C 1017.4 hPa ESE 5.8 km/h 8.7 km/h 76% 0.0 mm CLR
10:54 17.4 °C 13.1 °C 1017.4 hPa East 5.8 km/h 9.5 km/h 76% 0.0 mm CLR
10:59 17.7 °C 13.2 °C 1017.4 hPa East 5.0 km/h 7.4 km/h 75% 0.0 mm CLR
11:04 17.8 °C 13.1 °C 1017.6 hPa North 5.0 km/h 9.3 km/h 74% 0.0 mm CLR
11:09 17.9 °C 13.2 °C 1017.6 hPa NNW 5.8 km/h 5.8 km/h 74% 0.0 mm CLR
11:14 18.1 °C 13.4 °C 1017.6 hPa NE 5.8 km/h 7.4 km/h 74% 0.0 mm CLR
11:19 18.3 °C 13.4 °C 1017.4 hPa SSE 4.7 km/h 9.3 km/h 73% 0.0 mm CLR
11:24 18.4 °C 13.4 °C 1017.4 hPa East 4.7 km/h 11.1 km/h 73% 0.0 mm CLR
11:29 18.5 °C 13.3 °C 1017.4 hPa East 5.8 km/h 7.4 km/h 72% 0.0 mm CLR
11:34 18.7 °C 13.6 °C 1017.5 hPa NE 5.8 km/h 7.4 km/h 72% 0.0 mm CLR
11:39 18.9 °C 13.5 °C 1017.5 hPa NE 3.2 km/h 11.1 km/h 71% 0.0 mm CLR
11:44 18.9 °C 13.3 °C 1017.5 hPa East 3.2 km/h 3.7 km/h 70% 0.0 mm CLR
11:49 19.2 °C 13.6 °C 1017.4 hPa NW 3.2 km/h 9.3 km/h 70% 0.0 mm CLR
11:54 19.4 °C 13.6 °C 1017.4 hPa NE 3.2 km/h 11.1 km/h 69% 0.0 mm CLR
11:59 19.6 °C 13.8 °C 1017.4 hPa ESE 4.7 km/h 5.6 km/h 69% 0.0 mm CLR
12:04 19.9 °C 13.8 °C 1017.3 hPa East 4.7 km/h 9.3 km/h 68% 0.0 mm CLR
12:09 20.3 °C 13.7 °C 1017.3 hPa ENE 3.9 km/h 7.4 km/h 66% 0.0 mm CLR
12:14 20.3 °C 13.7 °C 1017.3 hPa NE 3.9 km/h 13.0 km/h 66% 0.0 mm CLR
12:19 20.2 °C 13.9 °C 1017.3 hPa ESE 5.8 km/h 7.4 km/h 67% 0.0 mm CLR
12:25 20.3 °C 13.9 °C 1017.3 hPa NE 5.8 km/h 13.0 km/h 67% 0.0 mm CLR
12:29 20.3 °C 13.9 °C 1017.3 hPa NNE 6.4 km/h 7.4 km/h 67% 0.0 mm CLR
12:34 20.5 °C 14.2 °C 1017.0 hPa NW 6.4 km/h 7.4 km/h 67% 0.0 mm CLR
12:39 20.7 °C 14.1 °C 1017.0 hPa NE 6.4 km/h 18.5 km/h 66% 0.0 mm CLR
12:44 20.8 °C 14.2 °C 1017.0 hPa NNE 6.4 km/h 13.0 km/h 66% 0.0 mm CLR
12:49 20.9 °C 14.1 °C 1016.9 hPa NNE 8.4 km/h 16.7 km/h 65% 0.0 mm CLR
12:54 20.9 °C 14.1 °C 1016.9 hPa East 8.4 km/h 16.7 km/h 65% 0.0 mm CLR
12:59 21.1 °C 14.3 °C 1016.9 hPa NE 10.3 km/h 14.8 km/h 65% 0.0 mm CLR
13:04 21.2 °C 14.3 °C 1016.7 hPa SE 10.3 km/h 9.3 km/h 65% 0.0 mm CLR
13:09 21.4 °C 14.3 °C 1016.7 hPa NE 9.5 km/h 11.1 km/h 64% 0.0 mm CLR
13:14 21.6 °C 14.3 °C 1016.7 hPa NNE 9.5 km/h 7.4 km/h 63% 0.0 mm CLR
13:19 21.9 °C 14.6 °C 1016.6 hPa NNE 7.6 km/h 24.1 km/h 63% 0.0 mm CLR
13:25 21.9 °C 14.6 °C 1016.6 hPa NNE 8.0 km/h 20.9 km/h 63% 0.0 mm CLR
13:29 22.2 °C 14.6 °C 1016.6 hPa North 11.9 km/h 16.7 km/h 62% 0.0 mm CLR
13:34 22.4 °C 14.5 °C 1016.3 hPa North 11.9 km/h 16.7 km/h 61% 0.0 mm CLR
13:39 22.7 °C 14.6 °C 1016.3 hPa NNW 8.4 km/h 18.5 km/h 60% 0.0 mm CLR
13:44 23.0 °C 14.6 °C 1016.3 hPa ENE 8.4 km/h 13.0 km/h 59% 0.0 mm CLR
13:49 23.2 °C 14.5 °C 1016.1 hPa NE 9.5 km/h 22.2 km/h 58% 0.0 mm CLR
13:54 23.3 °C 14.6 °C 1016.1 hPa NE 9.5 km/h 18.0 km/h 58% 0.0 mm CLR
13:59 23.3 °C 14.6 °C 1016.1 hPa NE 11.1 km/h 14.8 km/h 58% 0.0 mm CLR
14:05 23.4 °C 14.7 °C 1015.9 hPa NE 11.3 km/h 22.5 km/h 58% 0.0 mm CLR
14:09 23.3 °C 14.8 °C 1015.9 hPa ESE 13.0 km/h 16.7 km/h 59% 0.0 mm CLR
14:14 23.3 °C 14.8 °C 1015.9 hPa NE 13.0 km/h 27.8 km/h 59% 0.0 mm CLR
14:19 23.3 °C 14.8 °C 1015.9 hPa NNE 13.7 km/h 22.2 km/h 59% 0.0 mm CLR
14:24 23.5 °C 15.0 °C 1015.9 hPa ENE 13.7 km/h 20.4 km/h 59% 0.0 mm CLR
14:29 23.5 °C 15.0 °C 1015.9 hPa ENE 12.2 km/h 29.6 km/h 59% 0.0 mm CLR
14:34 23.5 °C 15.0 °C 1015.6 hPa North 12.2 km/h 29.6 km/h 59% 0.0 mm CLR
14:39 23.4 °C 14.9 °C 1015.6 hPa NE 16.4 km/h 29.6 km/h 59% 0.0 mm CLR
14:45 23.7 °C 14.7 °C 1015.6 hPa NE 16.4 km/h 14.8 km/h 57% 0.0 mm CLR
14:49 23.7 °C 14.7 °C 1015.6 hPa ESE 10.0 km/h 16.7 km/h 57% 0.0 mm CLR
14:54 23.8 °C 14.5 °C 1015.6 hPa SSE 10.0 km/h 18.5 km/h 56% 0.0 mm CLR
14:59 23.7 °C 14.4 °C 1015.6 hPa NE 11.9 km/h 18.5 km/h 56% 0.0 mm CLR
15:04 24.1 °C 15.1 °C 1015.5 hPa East 11.9 km/h 20.4 km/h 57% 0.0 mm CLR
15:09 24.1 °C 14.5 °C 1015.5 hPa South 10.3 km/h 11.1 km/h 55% 0.0 mm CLR
15:14 24.2 °C 14.9 °C 1015.5 hPa ESE 10.3 km/h 16.7 km/h 56% 0.0 mm CLR
15:19 24.1 °C 14.5 °C 1015.5 hPa SE 10.3 km/h 19.0 km/h 55% 0.0 mm CLR
15:25 23.9 °C 14.6 °C 1015.5 hPa ENE 10.3 km/h 13.0 km/h 56% 0.0 mm CLR
15:29 24.1 °C 14.8 °C 1015.5 hPa NNE 11.9 km/h 22.2 km/h 56% 0.0 mm CLR
15:34 24.2 °C 14.9 °C 1015.4 hPa East 11.9 km/h 16.7 km/h 56% 0.0 mm CLR
15:39 24.1 °C 14.5 °C 1015.4 hPa ESE 10.3 km/h 14.8 km/h 55% 0.0 mm CLR
15:45 24.1 °C 14.5 °C 1015.4 hPa East 10.3 km/h 16.7 km/h 55% 0.0 mm CLR
15:49 24.3 °C 14.7 °C 1015.4 hPa ENE 8.4 km/h 22.2 km/h 55% 0.0 mm CLR
15:54 24.1 °C 14.8 °C 1015.4 hPa East 8.4 km/h 22.2 km/h 56% 0.0 mm CLR
15:59 24.2 °C 14.6 °C 1015.4 hPa ESE 11.9 km/h 25.9 km/h 55% 0.0 mm CLR
16:05 23.9 °C 14.3 °C 1015.3 hPa ESE 11.3 km/h 24.1 km/h 55% 0.0 mm CLR
16:09 23.8 °C 14.8 °C 1015.3 hPa ESE 15.6 km/h 22.2 km/h 57% 0.0 mm CLR
16:14 23.7 °C 14.7 °C 1015.3 hPa ENE 15.6 km/h 24.1 km/h 57% 0.0 mm CLR
16:19 23.8 °C 14.8 °C 1015.2 hPa ESE 14.0 km/h 16.7 km/h 57% 0.0 mm CLR
16:25 24.0 °C 14.7 °C 1015.2 hPa ESE 14.5 km/h 22.5 km/h 56% 0.0 mm CLR
16:29 24.0 °C 14.4 °C 1015.2 hPa SE 11.9 km/h 18.5 km/h 55% 0.0 mm CLR
16:35 23.9 °C 14.6 °C 1015.1 hPa ESE 11.9 km/h 17.2 km/h 56% 0.0 mm CLR
16:39 23.9 °C 14.6 °C 1015.1 hPa SE 11.9 km/h 24.1 km/h 56% 0.0 mm CLR
16:44 23.9 °C 14.6 °C 1015.1 hPa SE 11.9 km/h 16.7 km/h 56% 0.0 mm CLR
16:49 24.0 °C 14.7 °C 1015.0 hPa ENE 11.1 km/h 14.8 km/h 56% 0.0 mm CLR
16:54 24.1 °C 14.8 °C 1015.0 hPa ESE 11.1 km/h 18.0 km/h 56% 0.0 mm CLR
16:59 23.9 °C 14.6 °C 1015.0 hPa East 11.1 km/h 14.8 km/h 56% 0.0 mm CLR
17:05 23.8 °C 14.8 °C 1015.0 hPa East 11.3 km/h 27.4 km/h 57% 0.0 mm CLR
17:09 23.8 °C 14.8 °C 1015.0 hPa SE 14.8 km/h 24.1 km/h 57% 0.0 mm CLR
17:14 23.7 °C 14.7 °C 1015.0 hPa ENE 14.8 km/h 22.2 km/h 57% 0.0 mm CLR
17:19 23.6 °C 14.8 °C 1015.0 hPa ESE 14.8 km/h 20.4 km/h 58% 0.0 mm CLR
17:24 23.5 °C 14.8 °C 1015.0 hPa SE 15.6 km/h 25.9 km/h 58% 0.0 mm CLR
17:29 23.6 °C 15.1 °C 1015.0 hPa SE 16.1 km/h 20.4 km/h 59% 0.0 mm CLR
17:34 23.7 °C 15.2 °C 1014.9 hPa ESE 16.1 km/h 24.5 km/h 59% 0.0 mm CLR
17:39 23.4 °C 14.9 °C 1014.9 hPa East 16.4 km/h 18.5 km/h 59% 0.0 mm CLR
17:44 23.4 °C 14.9 °C 1014.9 hPa SE 16.4 km/h 24.1 km/h 59% 0.0 mm CLR
17:49 23.3 °C 15.1 °C 1015.0 hPa ESE 14.8 km/h 22.5 km/h 60% 0.0 mm CLR
17:54 23.3 °C 15.1 °C 1015.0 hPa SSE 14.8 km/h 20.4 km/h 60% 0.0 mm CLR
17:59 23.3 °C 15.1 °C 1015.0 hPa SSE 16.1 km/h 22.2 km/h 60% 0.0 mm CLR
18:04 23.1 °C 15.2 °C 1015.0 hPa ESE 16.1 km/h 27.8 km/h 61% 0.0 mm CLR
18:09 22.7 °C 15.1 °C 1015.0 hPa ESE 17.2 km/h 24.1 km/h 62% 0.0 mm CLR
18:15 22.7 °C 15.1 °C 1015.0 hPa ESE 17.2 km/h 25.9 km/h 62% 0.0 mm CLR
18:19 22.7 °C 15.3 °C 1015.0 hPa ESE 17.2 km/h 25.1 km/h 63% 0.0 mm CLR
18:24 22.8 °C 15.1 °C 1015.0 hPa ESE 17.2 km/h 27.8 km/h 62% 0.0 mm CLR
18:29 22.7 °C 15.1 °C 1015.0 hPa East 14.8 km/h 20.4 km/h 62% 0.0 mm CLR
18:34 22.8 °C 15.1 °C 1014.9 hPa East 14.8 km/h 17.2 km/h 62% 0.0 mm CLR
18:39 22.5 °C 15.1 °C 1014.9 hPa SE 13.7 km/h 22.2 km/h 63% 0.0 mm CLR
18:44 22.6 °C 15.2 °C 1014.9 hPa ESE 13.7 km/h 20.4 km/h 63% 0.0 mm CLR
18:49 22.4 °C 15.0 °C 1014.9 hPa ESE 14.0 km/h 22.2 km/h 63% 0.0 mm CLR
18:54 22.5 °C 15.1 °C 1014.9 hPa SE 14.0 km/h 19.8 km/h 63% 0.0 mm CLR
18:59 22.4 °C 15.0 °C 1014.9 hPa SSE 13.0 km/h 24.1 km/h 63% 0.0 mm CLR
19:04 22.4 °C 15.0 °C 1014.9 hPa ESE 13.0 km/h 14.8 km/h 63% 0.0 mm CLR
19:09 22.1 °C 14.9 °C 1015.1 hPa ESE 14.0 km/h 22.2 km/h 64% 0.0 mm CLR
19:15 21.8 °C 15.0 °C 1015.1 hPa ESE 14.5 km/h 25.7 km/h 65% 0.0 mm CLR
19:19 21.7 °C 14.8 °C 1015.1 hPa East 14.8 km/h 20.4 km/h 65% 0.0 mm CLR
19:25 21.8 °C 14.9 °C 1015.1 hPa East 14.8 km/h 16.7 km/h 65% 0.0 mm CLR
19:29 21.8 °C 14.9 °C 1015.1 hPa East 11.1 km/h 18.5 km/h 65% 0.0 mm CLR
19:34 21.6 °C 15.0 °C 1015.1 hPa East 11.1 km/h 20.4 km/h 66% 0.0 mm CLR
19:39 21.4 °C 15.0 °C 1015.1 hPa NE 12.2 km/h 16.7 km/h 67% 0.0 mm CLR
19:45 21.5 °C 15.1 °C 1015.1 hPa NE 12.2 km/h 20.4 km/h 67% 0.0 mm CLR
19:49 21.3 °C 14.9 °C 1015.2 hPa East 10.0 km/h 22.2 km/h 67% 0.0 mm CLR
19:55 21.2 °C 14.8 °C 1015.2 hPa East 10.0 km/h 14.8 km/h 67% 0.0 mm CLR
19:59 21.3 °C 14.9 °C 1015.2 hPa ENE 10.0 km/h 11.1 km/h 67% 0.0 mm CLR
20:05 21.3 °C 14.9 °C 1015.4 hPa ENE 10.0 km/h 18.5 km/h 67% 0.0 mm CLR
20:09 21.2 °C 14.8 °C 1015.4 hPa ESE 9.5 km/h 16.1 km/h 67% 0.0 mm CLR
20:15 21.2 °C 14.8 °C 1015.4 hPa ESE 9.7 km/h 16.1 km/h 67% 0.0 mm CLR
20:19 21.0 °C 14.9 °C 1015.4 hPa NE 10.0 km/h 16.7 km/h 68% 0.0 mm CLR
20:25 20.8 °C 15.1 °C 1015.4 hPa NE 10.0 km/h 18.5 km/h 70% 0.0 mm CLR
20:29 20.6 °C 14.9 °C 1015.4 hPa ENE 12.2 km/h 20.4 km/h 70% 0.0 mm CLR
20:35 20.4 °C 14.9 °C 1015.6 hPa NE 12.2 km/h 20.4 km/h 71% 0.0 mm CLR
20:39 20.3 °C 15.1 °C 1015.6 hPa NE 13.7 km/h 16.7 km/h 72% 0.0 mm CLR
20:45 20.2 °C 14.9 °C 1015.6 hPa NE 12.9 km/h 25.7 km/h 72% 0.0 mm CLR
20:49 19.8 °C 15.1 °C 1015.7 hPa NNE 14.8 km/h 25.9 km/h 74% 0.0 mm CLR
20:55 19.6 °C 15.0 °C 1015.7 hPa NE 14.5 km/h 32.2 km/h 75% 0.0 mm CLR
20:59 19.3 °C 14.9 °C 1015.7 hPa NE 18.0 km/h 25.9 km/h 76% 0.0 mm CLR
21:05 19.2 °C 14.9 °C 1015.8 hPa ENE 18.0 km/h 24.1 km/h 76% 0.0 mm CLR
21:09 19.1 °C 14.8 °C 1015.8 hPa NNE 16.4 km/h 25.9 km/h 76% 0.0 mm CLR
21:14 18.9 °C 14.8 °C 1015.8 hPa ENE 16.4 km/h 24.1 km/h 77% 0.0 mm CLR
21:19 18.8 °C 14.9 °C 1015.9 hPa NE 16.4 km/h 18.5 km/h 78% 0.0 mm CLR
21:25 18.7 °C 14.8 °C 1015.9 hPa NE 16.4 km/h 20.4 km/h 78% 0.0 mm CLR
21:29 18.6 °C 14.7 °C 1015.9 hPa ENE 13.7 km/h 18.5 km/h 78% 0.0 mm CLR
21:34 18.5 °C 14.8 °C 1016.3 hPa NE 13.7 km/h 22.2 km/h 79% 0.0 mm CLR
21:39 18.4 °C 14.7 °C 1016.3 hPa NE 14.8 km/h 18.5 km/h 79% 0.0 mm CLR
21:45 18.4 °C 14.7 °C 1016.3 hPa NE 14.5 km/h 20.9 km/h 79% 0.0 mm CLR
21:49 18.3 °C 14.6 °C 1016.4 hPa NE 13.7 km/h 18.5 km/h 79% 0.0 mm CLR
21:55 18.3 °C 14.8 °C 1016.4 hPa NE 12.9 km/h 19.3 km/h 80% 0.0 mm CLR
22:00 18.2 °C 14.7 °C 1016.4 hPa NE 12.9 km/h 20.9 km/h 80% 0.0 mm CLR
22:05 18.1 °C 14.6 °C 1016.5 hPa NE 12.9 km/h 22.5 km/h 80% 0.0 mm CLR
22:09 18.1 °C 14.6 °C 1016.5 hPa NNE 12.2 km/h 18.5 km/h 80% 0.0 mm CLR
22:15 18.0 °C 14.7 °C 1016.5 hPa NE 12.9 km/h 24.1 km/h 81% 0.0 mm CLR
22:19 17.9 °C 14.6 °C 1016.7 hPa NE 13.0 km/h 16.7 km/h 81% 0.0 mm CLR
22:25 17.9 °C 14.6 °C 1016.7 hPa NE 12.9 km/h 22.5 km/h 81% 0.0 mm CLR
22:29 17.9 °C 14.6 °C 1016.7 hPa NNW 13.0 km/h 14.8 km/h 81% 0.0 mm CLR
22:35 17.9 °C 14.6 °C 1016.9 hPa NE 13.0 km/h 13.0 km/h 81% 0.0 mm CLR
22:39 17.8 °C 14.7 °C 1016.9 hPa NNE 11.1 km/h 13.0 km/h 82% 0.0 mm CLR
22:44 17.8 °C 14.7 °C 1016.9 hPa East 11.1 km/h 13.0 km/h 82% 0.0 mm CLR
22:49 17.7 °C 14.6 °C 1017.1 hPa NE 8.7 km/h 13.0 km/h 82% 0.0 mm CLR
22:55 17.7 °C 14.6 °C 1017.1 hPa NNE 8.7 km/h 14.8 km/h 82% 0.0 mm CLR
22:59 17.7 °C 14.6 °C 1017.1 hPa NE 9.5 km/h 9.3 km/h 82% 0.0 mm CLR
23:05 17.6 °C 14.5 °C 1017.2 hPa NE 9.7 km/h 16.1 km/h 82% 0.0 mm CLR
23:09 17.6 °C 14.7 °C 1017.2 hPa NNE 8.7 km/h 11.1 km/h 83% 0.0 mm CLR
23:15 17.6 °C 14.7 °C 1017.2 hPa NE 8.7 km/h 9.3 km/h 83% 0.0 mm CLR
23:19 17.6 °C 14.7 °C 1017.3 hPa NNE 7.6 km/h 13.0 km/h 83% 0.0 mm CLR
23:24 17.5 °C 14.6 °C 1017.3 hPa NE 7.6 km/h 11.1 km/h 83% 0.0 mm CLR
23:29 17.4 °C 14.5 °C 1017.3 hPa North 9.5 km/h 14.8 km/h 83% 0.0 mm CLR
23:34 17.3 °C 14.4 °C 1017.1 hPa NE 9.5 km/h 13.0 km/h 83% 0.0 mm CLR
23:39 17.2 °C 14.4 °C 1017.1 hPa NNE 8.4 km/h 13.0 km/h 84% 0.0 mm CLR
23:45 17.1 °C 14.4 °C 1017.1 hPa NNE 8.4 km/h 11.1 km/h 84% 0.0 mm CLR
23:49 17.1 °C 14.4 °C 1017.2 hPa ENE 7.6 km/h 9.3 km/h 84% 0.0 mm CLR
23:55 17.1 °C 14.6 °C 1017.2 hPa NE 7.6 km/h 11.1 km/h 85% 0.0 mm CLR
23:59 17.0 °C 14.4 °C 1017.2 hPa NE 6.9 km/h 9.3 km/h 85% 0.0 mm CLR
Murcia-Puente Tocinos, España
Compliments of Weather Underground - 2.75 mb

La estación de MeteoMurcia.com, publica sus datos en los siguientes proyectos:

Weather Underground PWS IMURCIAP2 Meteoclimatic www.awekas.at

W3Counter
Web Analytics